Regional Weather Roundup
Issued by NWS Albany, NY

Home | Current Version | Previous Version | Graphics & Text | Print | Product List | Glossary On
Versions: 1 2 3 4 5 6 7 8 9 10 11 12 13 14 15 16 17 18 19 20 21 22 23 24 25 26 27 28
000
ASUS41 KALY 032310
RWRALY

NEW YORK STATE HOURLY WEATHER ROUNDUP
NATIONAL WEATHER SERVICE ALBANY NY
700 PM EDT TUE MAY 03 2016

NOTE: "FAIR" INDICATES FEW OR NO CLOUDS BELOW 12,000 FEET WITH NO
SIGNIFICANT WEATHER AND/OR NO OBSTRUCTIONS TO VISIBILITY.

NYZ032-033-038>043-046>054-057>066-NYZ062>081-082-084-040000-
EAST


CITY           SKY/WX    TMP DP  RH WIND       PRES   REMARKS
ALBANY         CLOUDY    54  41  61 CALM      29.82F
GLENS FALLS    CLOUDY    55  38  52 E6        29.82F
POUGHKEEPSIE   CLOUDY    54  50  86 CALM      29.82R FOG
MONTGOMERY     LGT RAIN  51  49  92 NE5       29.82R FOG
WHITE PLAINS   FOG       50  48  93 SE5       29.82S VSB 3/4
ISLIP          CLOUDY    51  48  89 E7        29.83R
NEW YORK CITY  CLOUDY    53  51  93 NE9       29.83R
CENTRAL PARK   CLOUDY    53  49  86 E7        29.85S
$$

NYZ005>009-017-018-044>046-055-056-040000-
CENTRAL


CITY           SKY/WX    TMP DP  RH WIND       PRES   REMARKS
FULTON         CLOUDY    55  41  59 NW7       29.81S
SYRACUSE       CLOUDY    56  40  55 CALM      29.79S
ROME           CLOUDY    55  44  66 S7        29.80S
ELMIRA         CLOUDY    53  43  68 S5        29.79F
BINGHAMTON     CLOUDY    47  45  93 CALM      29.79S
MONTICELLO     CLOUDY    46  46 100 E5        29.82S
$$

NYZ026>034-041>043-087-040000-
NORTH


CITY           SKY/WX    TMP DP  RH WIND       PRES   REMARKS
WATERTOWN      CLOUDY    54  40  59 SW9       29.79S
FORT DRUM      NOT AVBL
MASSENA        SUNNY     56  36  47 NE12      29.83S
SARANAC LAKE   SUNNY     52  34  50 E10       29.78S
PLATTSBURGH    NOT AVBL
$$

NYZ001>004-010>016-019>021-085-040000-
WEST


CITY           SKY/WX    TMP DP  RH WIND       PRES   REMARKS
NIAGARA FALLS  PTSUNNY   59  40  49 N9        29.79
BUFFALO        PTSUNNY   58  39  49 CALM      29.79F
DUNKIRK        CLOUDY    49  42  77 SW5       29.82S
JAMESTOWN      CLOUDY    50  39  66 CALM      29.81S
WELLSVILLE     CLOUDY    51  42  71 CALM      29.80S
ROCHESTER      CLOUDY    54  38  54 NE5       29.80F
PENN YAN       CLOUDY    54  41  61 NE3       29.80F
$$

             KEY
       WCI = WIND CHILL INDEX
       VSB = VISIBILITY
       HX  = HEAT INDEX
$$




USA.gov is the U.S. government's official web portal to all federal, state and local government web resources and services.